GFSGBSN_925_thetae_000.txt.gz
Theta_e
318 318 318 318 317 318 318 317 313 312 311 310 310 310 309 309 308 309 309 310 310 310 310 309 311 312 315 317 315 314 313 315 317 319 322 323 324 327 328 327 325 326 326 325 326 322 323
318 318 317 318 319 318 317 316 312 311 310 310 309 309 309 308 308 308 309 309 310 310 310 311 312 312 317 316 312 313 314 315 317 320 322 323 324 323 324 323 324 325 324 324 323 322 322
318 318 317 317 317 317 317 316 310 310 310 309 309 309 309 309 308 308 309 309 310 310 310 312 312 315 318 313 311 312 313 315 316 319 322 322 322 322 323 322 323 323 323 322 322 321 322
313 317 318 317 317 316 318 317 312 309 309 309 309 309 309 309 309 309 309 309 310 310 310 312 312 316 317 311 312 312 314 315 317 319 321 321 321 324 324 322 321 321 322 325 323 322 322
314 309 309 312 317 316 318 318 315 308 308 309 309 309 309 309 309 309 309 309 310 310 311 312 316 319 316 310 313 314 314 316 318 319 320 320 321 323 322 323 323 323 323 324 325 322 323
320 319 318 315 310 312 315 315 317 313 308 308 308 309 309 309 309 308 309 310 314 311 314 319 319 316 313 313 314 313 314 316 318 320 320 320 322 323 322 322 325 325 322 322 324 323 322
322 321 321 320 320 314 309 308 309 310 311 309 308 308 308 308 309 308 311 316 318 319 316 318 318 317 315 313 313 313 314 316 318 321 322 322 323 324 323 322 322 323 324 324 324 325 323
323 322 322 321 321 321 319 312 307 307 310 309 309 308 308 308 308 309 309 320 319 317 316 317 318 316 316 314 314 314 315 317 320 323 322 324 323 323 323 324 323 324 323 322 323 323 323
320 319 319 319 319 320 321 321 318 311 308 309 309 308 308 309 309 309 315 318 316 316 318 319 318 317 316 315 314 315 315 317 321 322 323 324 324 322 323 324 323 324 323 322 322 323 322
317 317 317 318 318 319 320 321 321 321 317 312 309 309 309 309 311 314 315 317 317 317 320 319 316 316 315 315 315 315 315 319 321 321 322 324 322 321 321 321 321 322 323 322 322 322 322
313 313 313 314 315 317 318 320 321 321 321 320 317 310 309 308 310 315 318 317 317 317 333 319 316 314 316 315 318 317 316 318 321 321 322 323 321 320 321 320 321 321 321 321 323 322 322
310 310 310 310 310 312 313 315 318 320 321 322 321 317 310 313 313 318 318 316 317 323 327 320 317 315 316 316 317 318 317 318 320 320 321 321 319 320 320 321 321 321 321 321 322 323 325
309 309 309 309 309 307 306 306 310 315 319 321 322 320 312 310 321 322 319 316 322 325 321 321 319 317 316 318 316 319 319 318 319 320 322 321 321 319 320 321 319 321 322 325 330 330 328
308 308 308 308 307 307 307 304 303 304 312 318 320 321 318 313 316 321 320 317 323 324 324 320 319 318 318 318 319 319 320 321 319 320 321 323 323 320 319 320 321 321 321 323 325 327 327
308 307 307 307 307 306 306 306 305 300 301 310 318 321 320 320 314 321 321 319 323 324 321 321 320 320 320 320 320 320 319 320 321 320 322 322 322 322 319 319 320 323 322 321 323 322 322
307 307 308 307 307 306 305 307 307 303 299 302 317 319 319 321 317 318 321 322 322 323 323 323 321 322 323 324 321 320 321 321 321 321 320 321 323 323 321 319 319 320 322 323 322 322 321
309 308 308 307 307 306 306 306 306 304 299 316 318 319 321 320 318 316 321 324 324 323 323 321 322 321 321 322 322 323 322 323 324 323 321 321 322 324 319 320 320 320 321 322 322 320 320
309 309 309 308 307 306 306 306 306 304 302 306 314 315 319 319 321 320 321 321 320 322 322 322 321 322 321 321 323 323 324 324 322 323 324 322 323 324 322 321 320 320 320 321 321 321 321
309 309 309 308 307 307 306 306 307 306 304 306 312 313 318 319 319 317 317 316 318 320 322 321 321 321 322 323 324 323 323 322 322 323 323 323 324 324 324 322 320 321 321 319 320 320 321
309 308 307 308 306 306 307 305 305 307 305 308 310 308 312 317 317 318 319 318 319 319 320 321 322 323 324 325 324 324 324 323 320 323 331 325 323 323 324 324 323 321 321 321 321 321 321
307 307 306 307 307 306 306 306 304 305 306 309 308 310 311 309 312 312 311 312 313 315 316 317 317 317 321 324 324 326 325 324 323 323 324 323 323 322 322 323 324 324 322 321 321 321 322
305 305 305 305 305 305 305 306 306 305 306 310 309 309 309 309 308 307 306 306 307 310 311 313 316 316 317 318 321 323 322 322 323 321 318 320 326 324 322 322 322 323 323 324 321 321 321
305 305 305 305 306 305 304 305 306 307 306 308 308 307 307 308 308 308 308 307 307 307 307 307 308 309 315 316 314 315 316 316 316 315 312 313 318 324 329 323 323 325 323 324 324 322 321
304 304 305 305 304 305 305 305 303 305 307 306 307 308 310 308 308 308 307 307 307 307 308 308 307 307 307 308 309 310 311 313 313 314 315 314 316 316 323 327 331 324 322 323 324 324 321
304 303 304 303 303 303 304 304 305 304 304 307 306 307 309 309 307 308 307 307 307 307 307 307 307 307 310 310 312 312 311 311 311 313 314 316 318 321 325 327 328 325 324 324 323 323 323
303 303 303 304 304 303 303 304 304 305 304 305 306 306 307 307 307 306 308 308 308 308 308 307 306 305 309 311 312 312 313 312 312 311 317 318 320 323 323 328 333 327 323 321 320 322 321
303 303 303 303 303 303 303 304 303 304 304 305 305 306 306 308 306 306 307 307 307 308 308 307 306 306 308 312 313 312 312 309 311 311 311 315 317 317 316 316 323 323 322 320 322 323 320
302 302 302 302 302 302 303 303 303 303 303 304 305 305 306 307 307 306 306 307 307 307 308 307 307 307 307 308 309 309 310 311 312 312 313 314 315 316 317 318 321 317 318 321 317 314 314
302 302 302 302 302 301 301 301 302 303 303 303 305 304 305 306 306 305 306 306 306 306 307 307 307 307 308 308 309 309 309 309 308 310 307 311 316 316 317 319 314 313 317 313 312 315 312

GFSGBSN_925_thetae_003.txt.gz
Theta_e
318 318 317 318 318 319 318 315 311 310 311 312 310 310 309 308 308 308 309 309 310 310 310 309 311 312 313 317 314 314 311 314 316 318 319 322 321 323 324 324 323 323 323 324 322 320 320
320 319 318 318 318 318 317 317 311 310 310 309 309 309 308 308 308 308 308 309 310 311 310 310 312 312 317 315 312 314 313 314 316 318 320 322 322 320 321 321 320 322 322 323 321 320 320
316 317 318 319 318 318 317 316 310 310 310 309 309 309 309 309 308 308 309 309 310 311 310 311 312 314 318 315 312 312 312 314 315 317 320 321 321 320 319 320 320 321 321 321 319 319 319
321 318 316 316 316 317 317 316 309 308 309 309 309 309 309 309 309 309 309 309 310 310 310 311 312 313 315 312 312 312 313 314 316 318 319 321 321 321 321 319 319 320 319 320 319 319 319
321 322 320 319 312 311 311 311 311 307 308 309 309 309 309 309 308 308 308 309 309 309 309 311 314 318 316 310 311 312 313 314 316 318 319 320 320 320 320 318 317 318 317 318 321 319 321
321 321 321 321 321 317 311 307 307 309 309 307 308 308 308 308 308 308 309 310 310 312 311 314 320 314 313 312 313 313 313 315 317 318 319 318 318 318 317 317 317 319 318 318 319 319 320
319 319 319 319 320 321 321 318 312 308 308 309 309 307 307 307 308 308 309 315 317 318 315 317 318 314 313 313 313 312 314 315 317 318 318 318 317 318 317 316 318 319 320 320 318 321 319
318 317 317 317 318 318 319 321 320 317 311 309 308 308 308 308 308 309 308 317 317 316 314 315 316 316 316 313 312 311 314 315 317 318 318 319 319 318 319 319 319 319 319 319 318 321 319
314 315 315 316 316 316 318 319 320 321 319 316 312 309 309 309 309 310 312 316 317 316 315 317 316 317 315 314 313 312 313 314 317 318 319 318 320 320 320 321 321 319 320 320 319 321 320
311 310 311 311 311 312 313 315 318 320 321 321 320 311 309 309 314 316 315 317 316 316 317 319 316 315 314 314 314 314 314 316 317 319 318 318 319 320 320 319 320 320 320 321 320 319 317
309 310 309 309 309 308 305 307 312 315 319 321 321 319 309 307 308 317 317 317 316 317 321 319 316 314 314 314 316 315 315 317 319 319 319 319 319 319 319 319 317 318 320 320 320 319 320
309 309 309 309 308 308 305 302 301 303 310 317 320 321 315 315 316 318 320 317 316 320 322 318 314 314 314 314 316 316 316 315 317 318 317 317 318 318 318 319 319 319 319 320 320 318 320
308 308 308 308 307 306 305 305 303 300 300 304 313 319 320 312 319 320 317 315 317 319 320 319 317 315 315 315 315 318 317 316 315 319 317 319 319 317 318 319 318 319 317 319 323 324 321
308 308 308 307 307 306 306 304 304 302 298 299 302 311 319 318 314 319 320 313 319 321 321 320 320 316 316 316 315 315 318 317 315 315 317 317 317 318 316 318 317 317 316 318 321 325 321
308 308 307 306 307 305 305 305 304 303 299 300 303 314 320 321 315 316 314 314 318 320 322 323 321 318 317 317 316 315 315 317 317 315 317 318 319 318 317 317 318 318 319 317 318 317 318
309 309 309 308 307 306 306 306 306 304 301 312 315 317 320 319 317 318 315 319 317 320 321 321 322 320 320 319 318 318 316 317 317 318 316 317 319 318 318 317 317 317 317 319 318 322 320
310 309 309 309 306 306 306 306 306 305 303 302 315 313 320 320 316 309 314 317 320 320 320 321 320 319 319 319 318 318 319 319 320 320 318 318 317 319 318 318 318 318 320 319 317 316 316
309 308 308 308 306 305 306 305 304 306 305 303 310 312 319 318 316 313 315 317 316 316 317 319 319 320 320 320 320 320 320 320 321 321 322 319 318 320 320 317 317 317 318 319 321 319 317
308 308 308 307 306 306 306 306 303 305 306 307 307 306 317 318 315 312 312 316 316 318 318 321 323 323 322 324 325 322 323 323 321 323 325 325 324 322 321 319 318 318 318 317 319 315 319
306 306 306 306 304 305 305 305 306 303 305 308 305 303 304 309 310 313 312 310 310 309 312 312 314 317 319 320 320 324 324 324 322 321 321 321 325 325 323 321 320 319 319 318 318 320 321
305 305 306 306 305 305 305 305 306 305 304 309 304 305 307 308 307 305 304 305 304 305 307 307 309 310 309 313 317 319 319 318 318 318 315 316 325 324 320 318 321 322 321 320 319 319 319
305 305 305 304 305 305 305 305 304 306 304 309 304 305 303 304 304 304 304 304 306 307 306 306 307 307 307 307 307 309 312 315 317 314 313 313 315 313 312 315 317 319 320 321 319 320 319
305 305 305 305 304 303 304 305 305 304 306 306 306 308 306 305 304 304 304 306 307 306 306 306 306 306 306 306 305 307 307 309 312 313 313 313 313 313 313 313 314 315 319 323 324 320 319
304 304 304 304 304 303 303 303 304 305 305 306 307 306 305 305 305 306 306 307 308 307 306 306 306 305 306 307 307 307 307 308 311 313 313 313 311 314 314 314 318 313 322 323 325 324 321
304 304 304 304 304 303 303 303 304 304 306 305 305 306 305 305 304 304 305 306 305 305 307 306 305 305 302 307 308 308 307 307 308 308 308 308 312 316 318 318 317 316 320 319 322 322 320
303 304 304 304 304 303 302 302 303 304 304 304 304 305 306 307 305 304 305 305 305 305 305 306 305 305 303 307 307 302 308 307 308 308 308 310 310 314 315 319 318 314 317 318 316 326 317
303 303 303 303 303 303 303 303 303 303 303 304 304 305 305 304 303 304 305 306 305 306 307 306 305 305 305 305 306 306 306 307 307 306 306 307 309 312 313 315 315 313 313 315 320 320 313
303 303 303 303 303 303 303 303 303 302 301 303 303 303 305 303 303 303 304 305 305 306 307 305 306 304 304 305 305 304 304 307 310 308 308 309 309 310 309 313 313 314 317 319 317 310 311
302 302 302 302 302 302 302 302 303 303 302 302 303 302 303 304 303 303 303 304 305 305 305 305 306 305 307 305 305 304 303 303 305 308 305 306 307 306 309 308 307 305 308 314 313 312 311

GFSGBSN_925_thetae_009.txt.gz
Theta_e
318 317 317 317 317 317 318 316 310 309 309 309 309 308 308 308 308 308 308 308 309 309 309 309 310 311 313 315 313 314 310 312 315 317 318 319 319 320 322 322 322 322 321 323 322 321 320
320 319 317 317 317 316 316 316 311 309 309 309 309 308 308 308 308 308 308 308 309 309 309 309 310 312 316 313 313 313 311 313 315 316 317 319 320 318 319 318 320 320 320 321 320 320 319
322 321 320 319 317 316 316 315 309 309 309 309 309 309 309 309 308 308 308 309 309 310 310 309 310 311 315 314 312 312 312 313 314 316 317 320 320 319 317 317 317 319 321 319 319 319 319
319 319 319 319 319 320 320 315 309 308 308 308 309 309 309 309 308 308 308 308 309 310 310 309 310 312 311 314 311 312 312 312 313 314 317 319 319 319 320 316 314 319 317 318 316 317 317
316 316 316 317 317 317 317 318 318 314 308 307 307 308 308 308 308 308 308 308 309 309 309 309 311 316 315 311 310 311 311 312 313 315 317 318 318 318 317 315 314 313 314 315 315 315 317
314 314 314 315 315 315 316 316 318 316 311 308 307 307 307 307 307 308 308 310 311 310 311 315 316 311 311 311 311 311 311 312 314 315 316 316 314 316 313 314 316 314 314 313 313 315 317
311 311 312 312 312 312 312 314 316 318 318 318 313 308 308 308 308 308 313 317 313 314 313 309 312 308 311 312 312 312 312 313 314 315 316 315 314 315 315 314 312 312 313 313 313 314 317
311 311 310 310 310 309 307 306 309 313 316 318 319 315 309 309 308 309 313 316 314 314 314 313 312 314 315 313 310 310 313 312 314 315 315 316 315 313 314 315 316 316 315 314 313 314 316
310 310 310 310 310 310 309 306 300 302 307 313 317 319 314 308 309 313 313 316 316 315 311 311 314 313 313 313 311 310 311 312 314 314 315 315 315 316 316 315 317 316 316 314 314 315 315
310 310 310 310 310 310 308 307 303 301 299 300 307 317 319 309 314 312 315 316 316 315 312 315 315 314 313 312 313 312 311 312 313 314 313 315 315 316 316 317 316 316 316 317 317 317 319
310 310 310 310 309 308 306 306 305 303 300 299 299 307 317 312 308 315 318 319 316 314 314 316 314 313 312 313 312 315 311 315 314 315 315 315 317 317 318 316 316 318 317 317 318 317 316
311 310 310 309 309 307 304 304 305 303 302 300 300 300 310 318 311 318 320 319 314 313 316 317 313 313 313 313 312 315 314 313 313 315 313 313 314 316 316 317 316 316 317 317 316 314 318
310 310 309 309 309 307 304 303 304 303 302 301 303 301 308 319 315 312 318 312 313 315 315 317 317 315 312 313 313 314 314 314 311 313 312 311 313 314 314 314 316 316 315 318 318 319 321
309 309 309 308 306 305 304 302 303 304 303 302 308 311 320 318 318 313 315 311 317 316 318 319 319 319 314 313 313 314 315 314 313 311 312 314 316 313 313 314 315 316 316 319 320 318 318
309 309 308 306 304 304 304 303 302 304 304 307 312 317 318 317 313 316 308 313 315 318 316 317 317 318 316 316 317 316 314 314 314 312 314 314 314 313 314 315 315 315 316 316 316 317 314
308 308 307 306 303 302 302 302 300 303 305 309 318 318 317 318 314 314 309 315 316 315 315 316 320 318 317 317 318 316 317 316 322 321 320 315 317 316 315 315 315 315 314 317 313 319 321
307 307 307 307 305 304 302 302 301 302 305 310 313 313 315 317 316 309 313 314 316 315 310 315 316 318 319 316 317 318 318 319 322 321 320 321 318 322 317 318 319 318 316 315 315 316 320
306 306 306 307 305 304 304 302 302 303 303 307 306 312 310 315 312 307 313 312 313 311 305 308 311 318 317 312 316 319 320 319 311 316 320 320 324 325 323 320 319 318 316 316 320 322 317
306 306 306 306 303 303 304 303 301 304 307 307 303 303 307 312 309 308 304 304 307 304 304 307 308 308 306 311 308 315 307 311 308 307 314 317 320 319 317 317 314 315 313 314 313 316 321
305 305 306 306 304 302 302 303 302 301 305 307 300 300 299 299 299 302 304 303 305 303 304 304 304 306 305 306 306 306 305 307 306 307 310 312 316 316 317 318 315 315 314 313 313 315 313
305 305 305 306 304 303 304 303 303 301 303 305 299 303 302 300 300 302 303 303 303 304 304 303 304 305 305 305 305 304 305 305 307 307 310 311 310 309 309 308 309 309 313 313 312 312 313
305 305 305 305 305 303 302 303 303 303 303 304 301 302 300 300 300 301 302 301 304 306 306 305 304 305 304 304 305 306 305 305 306 305 306 307 309 308 307 306 307 308 308 308 311 309 309
305 305 305 305 305 303 302 302 303 303 303 304 304 303 299 300 300 301 301 303 305 302 302 303 304 304 305 304 304 303 303 303 304 305 305 305 305 305 307 306 306 308 306 305 306 307 308
304 304 304 304 304 303 303 302 301 303 304 304 305 303 300 300 302 303 304 304 303 302 302 303 303 303 303 302 302 302 301 303 303 304 303 304 305 307 309 308 310 307 305 307 309 309 312
304 304 304 304 304 303 302 302 302 301 301 303 304 303 299 300 300 301 301 301 301 301 302 302 302 301 301 302 304 304 303 301 301 302 302 302 304 307 305 306 306 306 307 308 309 311 313
304 304 304 304 304 303 302 302 302 302 302 300 301 304 303 304 300 300 302 302 302 302 302 302 301 301 300 304 307 305 305 302 303 303 303 303 304 305 305 307 307 306 304 305 306 310 308
303 303 303 303 303 303 302 302 303 302 302 303 301 303 302 303 300 300 301 300 301 301 302 301 300 301 302 301 303 303 304 303 306 304 303 302 302 304 303 303 304 303 305 306 307 306 304
303 302 302 303 302 303 302 302 302 302 301 303 303 302 301 300 299 299 299 299 299 300 302 299 300 299 300 298 301 300 305 302 303 301 303 302 300 301 300 300 303 305 304 306 305 306 306
302 302 302 301 302 302 302 301 302 303 303 303 302 301 301 301 300 300 300 300 300 300 300 301 301 301 302 303 302 301 301 303 303 303 300 303 303 303 302 304 302 303 303 304 304 305 303

GFSGBSN_925_thetae_015.txt.gz
Theta_e
321 321 317 316 316 316 316 316 315 316 317 317 312 310 309 308 308 308 308 309 309 309 309 309 310 311 311 310 311 313 311 311 314 316 317 318 319 320 321 320 321 323 322 322 323 323 321
318 316 316 317 317 317 317 317 315 313 311 310 309 309 308 308 308 308 308 308 309 309 309 309 309 311 314 309 311 312 311 312 314 316 316 318 318 318 319 318 319 317 319 319 320 321 320
316 316 315 315 315 315 316 316 317 316 314 310 309 308 308 308 308 308 308 308 308 309 309 309 309 311 311 309 313 311 311 312 313 315 316 318 318 319 317 319 315 316 319 318 318 319 321
313 314 314 314 314 315 315 315 316 316 312 308 308 308 308 308 307 307 307 308 308 309 309 309 309 312 309 312 313 311 311 311 312 314 315 317 318 318 319 317 317 316 316 321 317 318 319
312 312 313 313 313 314 315 315 315 315 315 311 308 307 307 307 307 307 307 308 308 308 308 309 311 313 309 313 310 310 311 310 312 315 316 316 316 316 317 319 319 316 318 316 316 315 318
312 312 312 312 312 312 312 310 308 313 315 315 314 311 308 307 307 307 308 312 310 309 311 312 314 307 309 310 310 310 310 311 313 314 314 315 314 316 315 318 315 314 316 314 315 314 316
311 311 311 312 312 312 312 310 301 301 304 311 315 315 311 309 308 308 313 316 309 310 311 307 309 306 309 310 310 310 310 312 313 314 313 314 315 314 314 316 314 312 313 314 315 313 314
311 311 311 312 311 311 311 309 304 301 300 305 313 316 316 310 309 310 314 312 312 313 313 311 311 311 312 313 313 310 312 310 312 312 314 314 315 312 311 312 315 315 316 316 316 315 314
310 310 310 311 311 310 310 307 304 303 301 301 306 315 316 309 312 315 315 315 315 313 310 311 312 312 312 312 312 312 310 310 311 312 314 311 310 313 313 314 314 314 314 314 314 314 314
310 310 309 309 310 309 305 304 304 304 301 301 301 308 316 311 311 313 317 319 315 313 311 315 314 312 311 311 313 310 310 311 311 312 311 313 312 313 314 315 314 315 314 314 314 315 317
309 309 309 309 309 308 303 302 304 304 301 301 301 303 317 312 312 315 316 318 316 312 314 314 312 312 310 312 311 313 310 312 311 312 314 313 314 315 317 317 314 318 314 315 316 316 317
309 309 309 308 308 307 302 302 303 304 304 306 302 302 316 315 316 312 314 317 312 313 316 316 314 315 313 311 311 311 312 311 310 312 312 313 311 313 314 314 315 314 316 315 315 317 321
309 309 308 308 308 306 305 301 302 308 309 306 313 316 317 315 314 314 314 310 311 312 314 318 317 315 314 313 312 312 313 312 311 313 312 310 311 312 312 314 312 314 315 318 318 321 321
309 309 308 306 303 302 301 299 299 307 314 318 315 315 314 314 313 315 312 309 311 316 315 315 315 314 315 315 314 315 314 314 318 313 312 314 317 312 314 317 318 315 316 318 319 319 319
309 308 302 297 297 297 297 298 298 301 314 317 317 315 309 313 315 313 308 311 315 315 313 315 313 315 315 316 315 312 314 317 319 319 324 325 319 316 317 316 314 315 317 314 317 320 320
308 308 302 297 296 297 297 297 298 299 307 317 317 315 307 310 315 310 310 313 314 309 306 312 316 315 317 315 314 311 310 319 320 313 317 320 317 318 318 315 313 317 314 317 318 321 321
307 307 303 298 297 296 296 297 297 298 304 312 314 308 305 311 312 308 312 313 314 308 303 309 315 313 315 310 309 309 309 308 308 306 311 315 318 313 311 311 314 311 310 309 314 316 321
307 307 307 302 300 297 296 296 297 298 301 308 306 304 303 311 308 303 308 308 306 303 302 305 308 307 308 306 305 310 313 308 305 305 307 310 315 310 307 306 307 308 312 307 308 308 309
306 307 307 304 299 297 296 296 297 299 301 304 300 299 302 302 298 295 298 300 303 302 304 303 304 305 304 305 302 303 306 306 303 304 304 306 307 306 301 302 304 304 305 304 305 306 305
306 306 307 306 301 300 296 295 297 298 300 304 296 295 295 297 296 298 299 300 300 302 303 302 303 303 303 303 303 302 304 304 303 304 306 307 309 308 305 305 307 306 305 305 306 306 306
306 306 306 306 303 301 298 295 296 298 300 301 296 301 299 295 299 300 299 300 301 304 302 300 302 303 304 305 304 304 303 301 303 304 304 305 306 305 305 304 305 305 305 305 305 305 306
305 305 305 305 304 302 301 297 296 297 298 301 297 297 294 297 298 297 297 299 303 303 302 301 302 302 302 303 303 302 302 303 304 303 304 303 305 305 305 303 303 303 304 304 304 304 305
305 305 305 305 305 303 302 301 297 297 298 301 300 300 293 297 297 295 298 302 302 301 299 301 301 302 302 302 301 301 301 302 302 302 302 303 303 304 304 303 303 305 304 301 301 301 303
305 305 305 305 305 302 303 303 301 298 300 302 302 299 294 296 298 298 301 301 301 300 300 300 300 301 300 299 298 299 299 300 301 301 302 303 303 303 304 302 304 302 301 301 302 303 303
304 305 304 304 304 302 301 302 302 301 298 300 302 301 296 297 297 299 300 300 299 299 300 300 300 299 299 298 301 301 300 299 300 299 300 302 303 304 304 302 303 302 301 301 302 304 304
304 304 304 304 304 303 302 301 302 301 300 300 302 302 299 297 297 299 300 300 299 299 299 299 298 298 298 300 301 295 301 300 300 301 300 300 301 303 303 304 304 301 300 301 303 305 304
303 304 304 304 303 303 302 302 301 301 301 300 300 300 299 297 296 298 298 298 297 298 300 298 298 298 297 299 301 300 300 299 302 302 303 301 300 302 302 304 303 300 300 304 303 304 303
304 304 303 303 303 303 302 302 301 301 303 302 301 301 299 295 295 297 298 298 298 298 300 297 298 297 298 301 301 300 298 300 301 301 302 301 301 301 301 301 301 300 301 302 303 303 303
304 304 303 303 303 302 302 301 301 302 303 303 302 301 301 301 299 300 300 300 300 299 297 298 298 298 298 300 300 300 300 298 300 301 298 301 302 302 302 302 300 300 301 301 302 303 303

GFSGBSN_925_thetae_021.txt.gz
Theta_e
316 316 316 316 316 316 316 317 317 313 312 311 310 310 309 309 309 309 309 309 309 309 309 309 309 310 319 319 318 317 312 313 317 318 319 321 321 322 322 322 322 323 323 323 323 323 324
315 315 315 315 315 315 316 315 314 314 312 309 309 309 308 308 308 308 308 309 309 309 309 309 309 312 319 317 313 315 314 313 316 318 320 321 322 322 321 322 322 323 323 322 322 322 322
315 315 315 315 315 315 316 316 314 313 311 309 309 308 308 308 308 308 308 308 309 309 310 310 309 315 316 317 314 313 313 314 315 316 320 320 321 321 323 322 323 322 322 321 322 321 322
314 314 314 314 315 315 315 316 314 313 312 308 308 307 307 307 307 307 307 308 308 309 309 310 310 317 315 314 314 313 314 314 314 315 316 319 320 321 321 322 320 321 321 321 323 323 322
312 313 313 313 313 314 314 313 309 311 312 312 310 309 308 307 307 307 307 307 308 308 309 309 316 316 318 313 314 312 314 314 314 316 318 317 319 321 322 322 321 321 322 321 320 321 320
311 312 312 313 313 313 313 313 306 304 307 311 312 311 310 309 308 307 309 311 308 313 312 315 314 316 313 315 313 312 312 313 316 317 319 319 319 321 321 321 321 319 318 317 318 318 320
312 312 312 312 312 312 312 312 306 303 303 309 312 313 312 310 308 308 314 317 321 320 318 316 315 314 315 315 313 313 313 315 316 318 319 320 318 319 319 318 317 317 317 317 318 319 319
311 312 312 312 311 311 310 309 304 303 302 304 313 315 313 310 309 314 318 318 318 319 318 316 316 317 315 316 317 315 314 316 316 319 318 320 323 319 316 317 317 318 320 321 322 321 321
311 311 311 310 310 309 308 308 306 304 302 302 306 313 311 313 313 317 318 318 317 316 321 318 317 318 316 317 317 316 315 316 317 318 319 321 322 318 316 318 320 321 321 322 321 320 321
311 310 309 308 307 306 305 307 309 306 302 302 303 311 310 313 316 319 320 319 319 316 324 320 318 317 317 317 318 315 314 316 318 319 319 321 319 317 319 320 320 322 320 321 320 322 322
310 309 306 301 299 298 299 303 310 306 307 302 302 312 311 313 317 320 317 318 318 319 328 318 319 316 317 318 317 318 314 316 318 319 318 320 319 319 319 319 318 319 319 319 321 322 323
310 308 302 297 297 297 297 299 313 313 309 302 302 314 314 315 317 317 318 318 318 325 326 323 321 320 321 320 319 319 318 317 317 318 318 319 318 318 318 318 318 318 321 322 322 324 325
309 309 307 302 297 296 297 298 307 316 313 313 315 317 317 316 320 315 318 318 324 323 320 323 322 319 319 320 319 320 321 323 323 323 321 320 319 317 320 321 321 321 319 319 321 328 328
309 309 308 305 300 297 297 298 299 316 313 314 312 314 312 311 315 315 317 321 322 321 322 319 318 317 320 318 319 315 317 320 317 318 322 324 322 318 316 317 320 320 318 319 319 319 319
309 309 305 300 296 296 297 297 298 303 317 317 317 315 311 308 314 315 320 321 326 321 315 316 317 318 321 319 312 312 319 322 315 313 319 319 319 316 313 316 315 317 316 316 320 318 318
308 303 298 296 296 296 296 297 299 302 314 316 319 313 308 307 313 317 320 321 318 310 309 312 317 316 317 315 312 310 310 313 314 310 311 314 308 310 314 310 313 314 309 309 312 311 311
300 299 297 296 296 296 296 297 298 303 311 316 319 317 306 311 314 318 321 321 314 306 309 312 312 310 314 311 307 306 309 312 309 309 309 308 307 310 312 308 308 308 307 309 310 312 312
300 302 301 297 296 296 296 297 298 302 310 312 314 312 305 307 314 315 318 311 306 306 306 310 310 310 310 307 305 307 310 311 307 308 306 306 305 304 306 307 305 305 307 309 309 309 309
306 305 303 297 296 296 296 296 297 299 304 310 309 307 305 307 310 307 307 306 306 306 306 306 308 306 305 306 304 305 306 309 307 305 305 305 306 307 309 310 308 309 309 306 307 310 310
305 302 300 297 296 296 296 297 297 298 301 307 308 311 307 307 307 307 306 305 306 306 305 306 306 306 305 305 305 305 305 305 306 304 304 305 305 305 307 308 307 307 307 306 305 309 307
302 300 300 298 296 296 296 297 298 298 300 307 310 307 306 308 305 305 305 304 305 306 305 304 305 305 304 303 304 304 305 304 304 305 305 305 306 307 306 306 305 305 305 304 305 305 305
303 301 300 299 297 296 296 297 298 299 304 306 309 308 305 305 304 305 303 305 305 304 303 303 303 305 304 304 304 304 303 304 304 305 304 305 306 306 306 304 304 304 304 304 304 304 304
303 303 302 304 300 297 296 297 298 299 305 305 304 303 308 302 304 304 305 305 304 303 303 304 303 303 304 304 304 304 304 304 304 305 305 305 306 306 306 304 304 305 305 304 303 303 303
303 303 303 304 302 300 297 299 298 298 303 304 304 304 307 305 305 305 304 304 304 303 303 303 303 303 304 303 302 303 303 303 303 304 304 305 305 306 307 305 307 305 304 304 303 303 303
304 304 303 304 303 301 299 299 299 299 302 304 304 306 306 306 305 304 304 304 303 303 303 304 303 303 302 302 305 305 306 304 304 304 304 304 305 306 307 306 305 304 303 303 303 304 304
305 305 304 303 304 302 301 300 299 300 301 304 303 304 306 306 305 304 304 304 305 305 304 304 302 301 302 304 306 308 307 304 304 303 303 303 303 307 306 308 307 304 303 303 303 305 305
305 305 304 304 303 302 302 301 300 301 301 305 304 304 305 307 304 304 305 305 304 304 303 303 303 303 302 305 307 308 307 303 304 303 303 304 304 307 308 310 306 303 303 303 305 305 305
305 305 305 304 303 303 302 301 300 301 302 305 304 303 304 306 305 302 303 303 304 304 303 304 303 303 304 305 306 306 306 305 304 303 303 304 304 304 303 306 304 303 303 303 304 304 305
305 305 304 304 303 303 302 302 301 301 303 303 305 303 303 305 306 303 301 302 302 303 303 303 304 303 304 306 305 306 306 305 305 306 303 303 303 305 304 305 303 303 303 304 305 304 305

GFSGBSN_925_thetae_024.txt.gz
Theta_e
315 315 316 316 316 316 316 315 316 316 316 313 310 310 310 309 309 309 309 309 309 309 309 309 309 310 317 323 318 318 314 314 317 318 320 322 322 324 326 324 323 323 324 324 325 324 324
315 315 315 315 316 316 316 316 315 315 315 313 310 309 309 308 308 308 309 309 309 309 309 309 309 312 323 319 314 316 314 314 316 318 320 321 323 323 321 323 324 323 323 323 321 321 322
315 314 315 315 315 315 316 316 315 313 310 309 309 308 308 308 308 308 308 308 309 309 310 310 310 316 318 317 315 314 314 314 315 316 320 320 320 322 323 325 324 324 322 321 322 321 323
313 314 314 314 314 315 315 315 314 312 311 309 308 307 307 307 307 307 307 308 308 309 309 310 310 317 316 314 315 313 315 314 315 316 316 319 319 321 321 323 320 320 321 323 324 323 324
313 313 313 313 314 314 314 314 308 309 311 311 310 309 308 307 307 307 307 307 308 308 309 310 317 319 318 313 315 313 314 315 315 317 318 317 319 322 323 324 324 323 321 323 322 321 321
312 312 313 313 313 313 313 313 307 304 307 311 311 311 309 308 308 307 309 311 308 316 314 316 315 316 314 315 314 313 313 314 317 318 320 320 321 322 323 323 324 320 318 318 318 318 319
312 312 312 312 312 312 312 312 306 303 304 311 312 312 312 310 308 308 310 314 321 320 318 317 316 316 316 315 313 314 314 315 317 319 320 322 320 321 320 319 318 316 316 317 319 321 322
312 312 311 312 311 311 311 312 308 304 303 305 313 315 313 310 309 312 317 321 319 319 319 318 317 317 316 316 317 316 315 316 317 320 320 321 323 320 318 318 319 320 321 321 322 323 320
311 311 311 309 308 307 307 310 309 304 302 303 308 314 310 311 312 316 320 319 319 318 322 318 318 318 317 318 317 317 316 317 318 319 321 322 323 320 318 320 320 321 321 322 322 321 320
311 310 308 306 304 299 300 310 308 306 303 302 305 313 310 315 316 320 321 319 320 318 324 321 319 318 318 317 318 316 315 316 319 320 320 321 320 319 320 320 320 320 321 320 321 321 322
311 308 299 297 298 299 298 308 312 307 305 302 304 313 310 315 318 321 319 319 320 320 334 320 320 318 317 319 319 319 315 317 319 319 319 319 320 320 319 319 319 319 320 320 321 322 321
310 305 297 296 297 297 298 299 314 313 308 302 307 312 312 316 319 318 319 319 319 327 326 324 321 320 321 320 320 320 320 319 321 321 320 319 319 319 318 320 320 319 321 319 318 319 325
310 306 301 297 296 297 298 298 305 314 313 313 315 317 318 317 320 317 319 319 327 326 321 323 322 319 320 320 320 319 320 320 318 319 322 321 320 319 318 317 321 320 319 320 323 328 329
310 309 307 301 297 296 297 298 299 314 313 315 314 315 312 314 316 316 319 323 326 323 323 320 319 317 321 318 319 314 319 321 315 314 318 322 322 319 315 316 317 315 317 320 321 320 322
309 309 304 298 296 297 297 298 299 304 316 317 317 315 312 309 315 316 321 325 326 321 314 315 318 318 322 319 313 313 318 322 315 312 313 316 320 315 313 315 314 316 316 311 316 317 317
308 306 299 296 296 297 297 298 301 305 315 316 320 312 308 308 314 318 322 322 316 310 310 312 319 316 317 315 313 310 311 313 313 310 310 311 308 309 313 312 312 313 311 310 310 311 312
300 299 297 296 296 297 297 297 300 308 313 316 318 320 307 309 314 320 323 320 311 307 310 312 313 311 314 311 307 307 311 312 310 310 309 308 306 309 308 309 308 308 308 308 308 308 309
298 301 303 298 296 297 297 298 299 305 314 313 315 316 306 308 316 316 318 313 307 306 307 309 310 310 310 307 307 307 310 312 308 308 305 306 305 304 306 307 307 306 305 306 312 311 309
300 301 301 298 296 297 297 298 299 300 305 310 312 311 307 309 311 310 309 307 308 307 307 308 308 306 305 307 306 306 307 309 308 305 305 305 305 305 309 310 309 309 309 309 307 309 309
302 300 300 297 296 297 297 298 299 300 302 309 312 314 310 309 309 309 308 306 307 306 305 306 307 306 306 306 306 306 306 307 307 305 305 305 304 304 307 307 307 307 307 306 306 307 306
302 301 299 297 296 296 297 298 300 303 305 310 311 308 308 310 307 306 307 306 307 308 305 305 306 305 304 304 305 305 306 305 305 306 305 306 306 306 306 306 306 305 305 305 304 304 305
301 300 299 297 297 296 297 298 299 305 307 307 312 311 308 306 305 306 304 306 306 304 304 304 304 306 304 304 305 304 305 304 305 305 305 305 306 306 307 306 305 305 305 304 304 305 304
303 302 300 300 298 297 297 297 299 303 307 307 306 306 309 303 305 306 307 306 306 303 304 305 304 303 305 306 305 304 303 303 304 304 305 305 307 308 307 305 305 306 305 304 304 304 303
306 304 302 301 300 299 297 298 299 302 305 305 306 308 311 308 307 307 305 305 304 304 305 304 304 304 305 303 303 303 303 303 303 303 304 305 306 306 307 306 307 306 304 304 304 303 303
306 305 304 303 302 300 299 298 299 301 305 305 305 307 309 310 307 305 305 304 304 303 303 304 304 303 303 302 305 307 307 306 305 305 305 304 304 306 306 307 305 305 304 304 303 303 304
306 306 305 304 303 301 300 300 299 301 305 306 304 306 307 310 308 305 304 304 306 305 305 304 303 302 302 304 308 309 312 305 305 303 304 304 304 305 305 305 306 305 304 304 304 303 304
306 306 305 305 303 303 301 300 299 301 303 306 305 304 307 310 307 304 305 306 305 306 305 304 303 303 303 307 310 312 310 305 305 304 304 304 305 305 306 306 306 305 303 303 302 302 302
306 306 305 305 303 303 302 301 300 300 302 306 306 304 305 308 307 304 304 305 304 305 305 304 304 303 304 306 310 310 310 307 306 305 304 305 305 305 305 305 304 304 302 302 302 302 302
307 306 305 305 304 303 302 300 300 299 302 304 306 305 304 306 307 305 303 303 303 304 304 304 305 304 305 307 308 310 309 308 305 306 304 304 303 305 304 304 303 302 302 302 302 304 304